Location: Johnson City
(36.3130°N, 82.3540°W)
Time: 02:57:50
(UTC-05:00)

Tiangong 2 - Pass Details

Date: 25 October 2018
Orbit: 382 x 393 km, 42.8° (Epoch: 20 November)

Event Time Altitude Azimuth Distance (km) Brightness Sun altitude
Rises 20:39:27 0° 225° (SW) 2,244 5.5 -24.5°
Reaches altitude 10° 20:41:36 10° 216° (SW) 1,392 4.3 -25.0°
Enters shadow 20:41:55 12° 214° (SSW) 1,274 4.0 -25.0°
